Dati Storici

Data ora Umidita' aria (%) Temperatura aria (°C) Rad globale (W/m²) Gonioanemometro (°) Tacoanemometro (m/s) Pioggia (mm)
23-06-2020 12:50 38.1 % 28.583 147.629 3.201 0 0
23-06-2020 12:40 38.3 % 28.365 121.124 2.207 0 0
23-06-2020 12:30 37.7 % 28.634 106.162 2.245 0 0
23-06-2020 12:20 38.3 % 28.61 79.98 3.383 0 0
23-06-2020 12:10 37 % 28.256 70.527 1.96 0 0
23-06-2020 12:00 38.2 % 28.67 122.319 1.03 0 0
23-06-2020 11:50 37 % 28.702 103.409 4.463 0 0
23-06-2020 11:40 39.4 % 28.366 91.4 1.645 0 0
23-06-2020 11:30 37.9 % 28.599 131.65 3.374 0 0
23-06-2020 11:20 36.6 % 28.691 86.691 2.049 0 0
23-06-2020 11:10 37.8 % 28.518 102.866 2.75 0 0
23-06-2020 11:00 36.9 % 28.595 92.506 2.988 0 0
23-06-2020 10:50 38.7 % 28.327 121.525 2.6 0 0
23-06-2020 10:40 37.3 % 28.129 91.021 3.739 0 0
23-06-2020 10:30 38.7 % 28.329 106.869 2.04 0 0
23-06-2020 10:20 39.5 % 28.847 93.64 2.699 0 0
23-06-2020 10:10 37.4 % 28.502 107.708 2.662 0 0
23-06-2020 10:00 39.2 % 28.441 119.987 1.377 0 0
23-06-2020 09:50 39.3 % 28.384 133.586 1.6 0 0
23-06-2020 09:40 38.3 % 28.08 105.966 3.122 0 0

I dati sono presentati in modo automatico a scopo informativo. In seguito a verifica i dati possono subire modifiche o essere invalidati e non riportati negli archivi definitivi.